Location: Unspecified
(0.0000°N, 0.0000°E)
Time: 12:52:18
(UTC+01:00)

GP-B - Visible Passes

Search period start: 01 November 2014 00:00
Search period end: 11 November 2014 00:00
Orbit: 635 x 638 km, 89.9° (Epoch: 31 October)

Date Brightness Start Highest point End Pass type
(mag) Time Alt. Az. Time Alt. Az. Time Alt. Az.
01 Nov 3.1 19:13:04 10° NNE 19:17:27 62° E 19:21:50 10° S visible
02 Nov 4.0 19:35:43 10° N 19:40:01 53° W 19:44:22 10° SSW visible
03 Nov 5.7 19:59:11 10° NW 20:02:36 22° W 20:06:02 10° SW visible
05 Nov 3.1 19:06:14 10° N 19:10:41 85° E 19:15:08 10° S visible
06 Nov 4.7 19:29:08 10° NNW 19:33:15 38° W 19:37:24 10° SSW visible
07 Nov 6.4 06:05:35 10° ESE 06:07:32 13° E 06:09:28 10° ENE visible
07 Nov 6.1 19:53:02 10° NW 19:55:50 17° W 19:58:38 10° SW visible
09 Nov 3.5 18:59:28 10° N 19:03:53 71° W 19:08:19 10° S visible
10 Nov 5.3 19:22:38 10° NNW 19:26:27 28° W 19:30:17 10° SW visible
